EW9119 Weather Reports


time (UTC)temp
F
wind
direction
speed
knots
gust
knots
rain 1hr
in
rain 24hr
in
rain mn
in
humidity
%
barometer
mb
20260901161604 92 316 0.0 0.0 0.00 0.00 0.00 48 1016.3
20260901160054 91 313 0.0 0.0 0.00 0.00 0.00 52 1016.4
20260901154547 91 301 0.0 0.0 0.00 0.00 0.00 54 1016.6
20260901153040 90 323 0.0 0.0 0.00 0.00 0.00 55 1016.8
20260901151549 91 300 0.0 0.0 0.00 0.00 0.00 56 1017.0
20260901150032 89 346 0.0 0.0 0.00 0.00 0.00 58 1017.0
20260901144527 88 318 0.0 0.0 0.00 0.00 0.00 63 1017.2
20260901143022 86 317 0.0 0.0 0.00 0.00 0.00 62 1017.3
20260901141528 85 360 0.0 0.0 0.00 0.00 0.00 63 1017.3
20260901140013 84 323 0.0 0.0 0.00 0.00 0.00 68 1017.2
20260901134511 83 322 0.0 0.0 0.00 0.00 0.00 68 1017.3
20260901133004 81 311 0.0 0.0 0.00 0.00 0.00 68 1017.3
20260901131600 80 120 0.0 0.0 0.00 0.00 0.00 65 1017.3
20260901130059 79 142 0.0 0.0 0.00 0.00 0.00 60 1017.4
20260901124551 77 142 0.0 0.0 0.00 0.00 0.00 36 1017.5
20260901123047 75 142 0.0 0.0 0.00 0.00 0.00 1 1017.4
20260901121543 72 142 0.0 0.0 0.00 0.00 0.00 1 1017.2
20260901120041 70 142 0.0 0.0 0.00 0.00 0.00 1 1017.1
20260901114535 70 142 0.0 0.0 0.00 0.00 0.00 1 1017.0
20260901113033 70 142 0.0 0.0 0.00 0.00 0.00 1 1016.8
20260901111526 70 142 0.0 0.0 0.00 0.00 0.00 1 1016.6
20260901110023 70 142 0.0 0.0 0.00 0.00 0.00 1 1016.6
20260901104525 70 142 0.0 0.0 0.00 0.00 0.00 1 1016.4
20260901103021 70 142 0.0 0.0 0.00 0.00 0.00 1 1016.4
20260901101519 70 142 0.0 0.0 0.00 0.00 0.00 1 1016.2
20260901100015 70 142 0.0 0.0 0.00 0.00 0.00 1 1016.3
20260901094511 70 142 0.0 0.0 0.00 0.00 0.00 1 1016.2
20260901093006 70 142 0.0 0.0 0.00 0.00 0.00 1 1016.2
20260901091501 70 142 0.0 0.0 0.00 0.00 0.00 1 1016.2
20260901084621 71 142 0.0 0.0 0.00 0.00 0.00 1 1016.0
20260901083049 71 142 0.0 0.0 0.00 0.00 0.00 1 1016.0
20260901081545 71 142 0.0 0.0 0.00 0.00 0.00 1 1016.1
20260901080055 71 142 0.0 0.0 0.00 0.00 0.00 1 1016.2
20260901074536 71 142 0.0 0.0 0.00 0.00 0.00 1 1016.2
20260901073043 72 142 0.0 0.0 0.00 0.00 0.00 1 1016.5
20260901071528 72 142 0.0 0.0 0.00 0.00 0.00 1 1016.5
20260901070023 72 142 0.0 0.0 0.00 0.00 0.00 1 1016.6
20260901064519 72 142 0.0 0.0 0.00 0.00 0.00 1 1016.6
20260901063020 72 142 0.0 0.0 0.00 0.00 0.00 1 1016.7
20260901061510 72 142 0.0 0.0 0.00 0.00 0.00 1 1016.6
20260901060017 73 142 0.0 0.0 0.00 0.00 0.00 1 1016.6
20260901054502 73 142 0.0 0.0 0.00 0.00 0.00 1 1016.8
20260901053105 73 142 0.0 0.0 0.00 0.00 0.00 1 1016.7
20260901051557 73 142 0.0 0.0 0.00 0.00 0.00 2 1016.9
20260901050049 74 142 0.0 0.0 0.00 0.00 0.00 8 1016.7
20260901044552 74 142 0.0 0.0 0.00 0.00 0.00 18 1016.6
20260901043042 74 142 0.0 0.0 0.00 0.00 0.00 27 1016.5
20260901041553 74 142 0.0 0.0 0.00 0.00 0.00 33 1016.5
20260901040049 74 142 0.0 0.0 0.00 0.00 0.00 38 1016.5
20260901034533 75 142 0.0 0.0 0.00 0.00 0.00 41 1016.5
20260901033028 75 142 0.0 0.0 0.00 0.00 0.00 50 1016.4
20260901031526 75 142 0.0 0.0 0.00 0.00 0.00 52 1016.5
20260901030019 75 142 0.0 0.0 0.00 0.00 0.00 53 1016.6
20260901024515 76 142 0.0 0.0 0.00 0.00 0.00 54 1016.5
20260901023010 76 142 0.0 0.0 0.00 0.00 0.00 56 1016.5
20260901021510 77 142 0.0 0.0 0.00 0.00 0.00 60 1016.4
20260901020002 77 142 0.0 0.0 0.00 0.00 0.00 64 1016.4
20260901014558 78 142 0.0 0.0 0.00 0.00 0.00 67 1016.2
20260901013058 78 142 0.0 0.0 0.00 0.00 0.00 68 1016.1
20260901011549 79 142 0.0 0.0 0.00 0.00 0.00 69 1015.8
20260901010054 80 142 0.0 0.0 0.00 0.00 0.00 70 1015.6
20260901004544 80 142 0.0 0.0 0.00 0.00 0.00 70 1015.5
20260901003041 81 142 0.0 0.0 0.00 0.00 0.00 70 1015.4
20260901001538 82 142 0.0 0.0 0.00 0.00 0.00 69 1015.3
20260901000032 83 142 0.0 0.0 0.00 0.00 0.00 68 1015.2
20260831234528 84 142 0.0 0.0 0.00 0.00 0.00 67 1015.0
20260831233036 85 142 0.0 0.0 0.00 0.00 0.00 65 1015.0
20260831231525 86 140 0.0 0.0 0.00 0.00 0.00 63 1015.1
20260831230014 86 140 0.0 0.0 0.00 0.00 0.00 61 1015.3
20260831224511 87 140 0.0 0.0 0.00 0.00 0.00 61 1015.1
20260831223006 88 140 0.0 0.0 0.00 0.00 0.00 60 1015.2
20260831221501 89 106 0.0 0.0 0.00 0.00 0.00 58 1015.3
20260831220058 89 240 0.0 0.0 0.00 0.00 0.00 56 1015.4
20260831214606 90 315 0.0 0.0 0.00 0.00 0.00 50 1015.4
20260831213049 90 317 0.0 0.0 0.00 0.00 0.00 50 1015.4
20260831211544 90 315 0.0 0.0 0.00 0.00 0.00 47 1015.4
20260831210040 90 322 0.0 0.0 0.00 0.00 0.00 48 1015.4
20260831204536 90 321 0.0 0.0 0.00 0.00 0.00 49 1015.6
20260831203031 90 315 0.0 0.0 0.00 0.00 0.00 51 1015.8
20260831201529 90 342 0.0 0.0 0.00 0.00 0.00 52 1015.8
20260831200022 91 313 0.0 0.0 0.00 0.00 0.00 52 1015.8
20260831194518 91 303 0.0 0.0 0.00 0.00 0.00 53 1016.0
20260831193022 90 286 0.0 0.0 0.00 0.00 0.00 55 1016.2
20260831191510 88 292 0.0 0.0 0.00 0.00 0.00 60 1016.2
20260831190010 88 126 0.0 0.0 0.00 0.00 0.00 57 1016.3
20260831184502 88 162 0.0 0.0 0.00 0.00 0.00 56 1016.5
20260831183106 87 139 0.0 0.0 0.00 0.00 0.00 59 1016.6
20260831181552 88 193 0.0 0.0 0.00 0.00 0.00 60 1016.8
20260831180106 90 109 0.0 0.0 0.00 0.00 0.00 56 1016.8
20260831174545 92 276 0.0 0.0 0.00 0.00 0.00 54 1017.1
20260831173038 88 296 0.0 0.0 0.00 0.00 0.00 59 1017.2
20260831171534 90 319 0.0 0.0 0.00 0.00 0.00 59 1017.1
20260831170038 89 106 0.0 0.0 0.00 0.00 0.00 57 1017.2
20260831164526 90 297 0.0 0.0 0.00 0.00 0.00 59 1017.4
20260831163021 89 279 0.0 0.0 0.00 0.00 0.00 61 1017.6